星链-3527 (STARLINK-3527 )

导读 | 豆包AI

STARLINK-3527是美国SpaceX公司星链星座中的一颗卫星,于2022年2月21日在美发射升空,属于Starlink第二代低轨互联网星座组网卫星,运行在近地轨道,平均高度约550公里左右。该卫星旨在为全球范围内提供高速宽带互联网服务,尤其覆盖偏远与网络基础设施匮乏地区,截至2026年3月仍在轨服役,助力星链全球网络布局完善。

基本信息
目录编号:
51726
目录名称:
STARLINK-3527
国际标识:
2022-016N
轨道中心:
EARTH
卫星名称:
星链-3527
卫星全名:
星链-3527 (STARLINK-3527 )
卫星状态:
在轨 (已飞行1482 天)
发射日期:
2022-02-21 UTC
国别 :
美国 (US)
星等 :
--
轨道信息
数据来源 国际轨道数据
星历时间: 2026-03-14T06:05:12+0800
22小时前
查看轨道信息
半长轴: 6917.313km
偏心率: 0.0001278
轨道倾角: 53.217°
近地点辐角 93.628°
升交点赤经 300.123°
平近点角 266.486°
近地点: 538.291km
远地点: 540.061km
周期: 95.426分钟
每日圈数: 15.090259
详细信息
固有亮度:
5
最大亮度:
2.5
卫星平台:
Starlink v1.5
覆盖范围:
全球
运营商:
太空探索技术公司
运营商所在国:
美国
制造商(研发单位):
太空探索技术公司
制造商所在国:
美国
使用方式:
暂无
卫星简介
星链(Starlink)计划是由太空探索技术公司(SpaceX)提出的一个巨型低轨卫星互联网星座项目,计划在2019年至2024年间在太空搭建由约1.2万颗卫星组成的“星链”网络,其中1584颗将部署在地球上空550千米处的近地轨道,并从2020年开始工作。该卫星仍在工作。
2D轨道图
3D轨道图
轨道高度分析图
轨道倾角分析图
轨道综合分析图
查看轨道综合分析图